Terminal Aerodrome Forecast
Issued by NWS

Home | Current Version | Previous Version | Text Only | Print | Product List | Glossary On
Versions: 1 2 3 4 5 6 7 8 9 10 11 12 13 14 15 16 17 18 19 20 21 22 23 24 25 26
000
FTUS45 KRIW 281723
TAFPNA
TAF
KPNA 281723Z 2818/2918 31016G26KT P6SM SCT050 BKN070
      TEMPO 2818/2820 BKN050
     FM282200 31013KT P6SM SCT050
     FM290200 30007KT P6SM FEW060
      AMD LTD TO CLD VIS AND WIND=

USA.gov is the U.S. government's official web portal to all federal, state and local government web resources and services.